Change the Weather History Date:

Saturday, September 10, 2011

  Actual Average Record
Temperature  
Mean Temperature 68 °F 69 °F  
Max Temperature 77 °F 80 °F 100 °F (1933)
Min Temperature 57 °F 58 °F 43 °F (1976)
Degree Days  
Heating Degree Days 0 1  
Month to date heating degree days 9  
Since 1 July heating degree days 14  
Cooling Degree Days 3 5  
Month to date cooling degree days 62  
Year to date cooling degree days 1015  
Growing Degree Days 18 (Base 50)    
Moisture  
Dew Point 61 °F    
Average Humidity 88    
Maximum Humidity 100    
Minimum Humidity 55    
Precipitation  
Precipitation 0.01 in 0.11 in 3.51 in (2014)
Month to date precipitation 1.11  
Year to date precipitation 26.86  
Sea Level Pressure  
Sea Level Pressure 29.98 in    
Wind  
Wind Speed 3 mph (NE)    
Max Wind Speed 13 mph    
Max Gust Speed -    
Visibility 6 miles    
Events Rain    
T = Trace of Precipitation, MM = Missing Value Source: NWS Daily Summary

Daily Weather History Graph

Daily Weather History Graph

Search for Another Location

Airport or City:

Trip Planner

Search our weather history database for the weather conditions in past years. The results will help you decide how hot, cold, wet, or windy it might be!

Date:

Astronomy

Sep. 10, 2011 Rise Set
Actual Time 6:40 AM CDT 7:22 PM CDT
Civil Twilight 6:13 AM CDT 7:49 PM CDT
Nautical Twilight 5:41 AM CDT 8:21 PM CDT
Astronomical Twilight 5:07 AM CDT 8:54 PM CDT
Moon 6:16 PM CDT (9/10) 5:01 AM CDT (9/10)
Length of Visible Light 13h 35m
Length of Day
12h 41m
Waxing Gibbous, 97% of the Moon is Illuminated
Sep 10
Waxing Gibbous
Sep 12
Full
Sep 20
Last Quarter
Sep 27
New
Oct 3
First Quarter

Hourly Weather History & Observations

Time (CDT) Temp. Dew Point Humidity Pressure Visibility Wind Dir Wind Speed Gust Speed Precip Events Conditions
12:54 AM 64.9 °F 62.1 °F 90% 29.94 in 8.0 mi Calm Calm - N/A   Mostly Cloudy
1:18 AM 64.4 °F 62.6 °F 94% 29.96 in 8.0 mi NNE 3.5 mph - N/A   Overcast
1:52 AM 62.6 °F 60.8 °F 94% 29.96 in 5.0 mi NNE 3.5 mph - N/A   Overcast
1:54 AM 63.0 °F 61.0 °F 93% 29.95 in 5.0 mi NE 3.5 mph - N/A   Overcast
2:25 AM 62.6 °F 60.8 °F 94% 29.95 in 4.0 mi NE 3.5 mph - 0.01 in   Overcast
2:54 AM 63.0 °F 61.0 °F 93% 29.94 in 5.0 mi Calm Calm - 0.01 in   Overcast
3:13 AM 62.6 °F 60.8 °F 94% 29.95 in 4.0 mi Calm Calm - N/A   Mostly Cloudy
3:24 AM 62.6 °F 60.8 °F 94% 29.96 in 3.0 mi Calm Calm - N/A   Scattered Clouds
3:36 AM 62.6 °F 60.8 °F 94% 29.96 in 4.0 mi Calm Calm - N/A   Mostly Cloudy
3:54 AM 63.0 °F 61.0 °F 93% 29.95 in 4.0 mi Calm Calm - N/A   Overcast
4:03 AM 62.6 °F 60.8 °F 94% 29.96 in 4.0 mi Calm Calm - N/A   Overcast
4:43 AM 62.6 °F 60.8 °F 94% 29.96 in 2.0 mi NE 3.5 mph - N/A   Overcast
4:52 AM 62.6 °F 62.6 °F 100% 29.96 in 1.0 mi NNE 5.8 mph - N/A   Overcast
4:54 AM 63.0 °F 62.1 °F 97% 29.95 in 0.8 mi NNE 4.6 mph - N/A   Overcast
5:07 AM 62.6 °F 62.6 °F 100% 29.96 in 1.5 mi NE 5.8 mph - N/A   Overcast
5:19 AM 62.6 °F 62.6 °F 100% 29.96 in 2.5 mi ENE 3.5 mph - N/A   Overcast
5:29 AM 62.6 °F 62.6 °F 100% 29.96 in 3.0 mi ENE 3.5 mph - N/A   Overcast
5:54 AM 63.0 °F 62.1 °F 97% 29.96 in 4.0 mi ENE 4.6 mph - N/A   Overcast
6:23 AM 62.6 °F 60.8 °F 94% 29.98 in 4.0 mi NE 3.5 mph - N/A   Overcast
6:54 AM 64.0 °F 62.1 °F 93% 29.98 in 3.0 mi NNE 3.5 mph - N/A   Overcast
7:27 AM 64.4 °F 62.6 °F 94% 30.00 in 3.0 mi NNE 4.6 mph - N/A   Overcast
7:41 AM 64.4 °F 60.8 °F 88% 30.00 in 4.0 mi NE 5.8 mph - N/A   Overcast
7:54 AM 64.0 °F 61.0 °F 90% 29.99 in 5.0 mi NNE 5.8 mph - N/A   Overcast
8:54 AM 64.9 °F 61.0 °F 87% 30.01 in 8.0 mi ENE 5.8 mph - N/A   Mostly Cloudy
9:54 AM 64.9 °F 59.0 °F 81% 30.02 in 10.0 mi ESE 4.6 mph - N/A   Overcast
10:54 AM 69.1 °F 60.1 °F 73% 30.02 in 10.0 mi ESE 4.6 mph - N/A   Mostly Cloudy
11:02 AM 69.8 °F 60.8 °F 73% 30.03 in 10.0 mi Calm Calm - N/A   Mostly Cloudy
11:43 AM 69.8 °F 60.8 °F 73% 30.04 in 10.0 mi NNE 6.9 mph - N/A   Overcast
11:54 AM 70.0 °F 61.0 °F 73% 30.02 in 10.0 mi North 5.8 mph - N/A   Overcast
12:54 PM 68.0 °F 60.8 °F 78% 30.03 in 10.0 mi North 5.8 mph - N/A   Overcast
1:54 PM 69.1 °F 61.0 °F 75% 30.01 in 9.0 mi NNE 5.8 mph - N/A   Overcast
2:54 PM 69.1 °F 61.0 °F 75% 30.00 in 10.0 mi NE 6.9 mph - 0.00 in   Overcast
3:54 PM 75.0 °F 57.9 °F 55% 29.98 in 10.0 mi NNE 3.5 mph - N/A   Clear
4:54 PM 66.9 °F 62.1 °F 84% 29.99 in 7.0 mi NE 12.7 mph - 0.00 in Rain Light Rain
5:54 PM 68.0 °F 59.0 °F 73% 29.99 in 10.0 mi East 3.5 mph - 0.00 in   Mostly Cloudy
6:54 PM 68.0 °F 61.0 °F 78% 29.99 in 10.0 mi Calm Calm - N/A   Clear
7:54 PM 66.2 °F 60.8 °F 83% 30.00 in 10.0 mi Calm Calm - N/A   Scattered Clouds
8:54 PM 63.0 °F 60.1 °F 90% 30.01 in 9.0 mi Calm Calm - N/A   Overcast
9:54 PM 62.1 °F 59.0 °F 90% 30.02 in 8.0 mi Calm Calm - N/A   Clear
10:54 PM 61.0 °F 57.9 °F 90% 30.02 in 9.0 mi Calm Calm - N/A   Clear
11:54 PM 57.9 °F 55.9 °F 93% 30.03 in 6.0 mi Calm Calm - N/A   Clear